DIAMOND RED

Last updated on Sat Apr 27 2024 00:03:32 GMT+0000 (Coordinated Universal Time)

1 42783U 17036U 24117.52479424 .09817830 23605-5 81354-3 0 9994 2 42783 97.0708 157.4869 0010103 255.0128 105.0054 16.39672811381736
UTC large
Height (km)
Speed (km/s)
/
Latitude / Longitude
Inclination (degrees)
Orbital Period (minutes)
Azimuth
Elevation
Range (km)
Doppler Factor

Next 0 passes for location: London (51.5072 / 0.1276)

Sorry there are no passes over London.